Location: Kirtland Hills
(41.6239°N, 81.3071°W)
Time: 23:04:41
(UTC+00:00)

Cosmos 968 Rocket - Pass Details

Date: 29 October 2020
Orbit: 741 x 770 km, 74.0° (Epoch: 29 November)

Event Time Altitude Azimuth Distance (km) Brightness Sun altitude
Rises 23:17:33 0° 344° (NNW) 3,234 6.8 -10.7°
Reaches altitude 10° 23:19:59 10° 348° (NNW) 2,300 6.0 -11.2°
Maximum altitude 23:25:07 57° 67° (ENE) 885 3.5 -12.1°
Drops below altitude 10° 23:30:10 10° 147° (SSE) 2,266 5.7 -13.1°
Sets 23:32:33 0° 151° (SSE) 3,181 6.5 -13.5°
